Date,TemperatureHighF,TemperatureAvgF,TemperatureLowF,DewpointHighF,DewpointAvgF,DewpointLowF,HumidityHigh,HumidityAvg,HumidityLow,PressureMaxIn,PressureMinIn,WindSpeedMaxMPH,WindSpeedAvgMPH,GustSpeedMaxMPH,PrecipitationSumIn
2013-1-1,78,72,66,-100,-100,-100,0,0,100,0.00,40.00,15,6,23,0.00
2013-1-2,79,72,63,-100,-100,-100,0,0,100,0.00,40.00,16,9,24,0.00
2013-1-3,79,73,69,-100,-100,-100,0,0,100,0.00,40.00,16,10,24,0.00
2013-1-4,78,73,69,-100,-100,-100,0,0,100,0.00,40.00,23,17,36,0.00
2013-1-5,76,72,71,-100,-100,-100,0,0,100,0.00,40.00,22,19,36,0.14
2013-1-6,78,73,70,-100,-100,-100,0,0,100,0.00,40.00,22,16,31,0.01
2013-1-7,76,72,70,-100,-100,-100,0,0,100,0.00,40.00,18,14,28,0.04
2013-1-8,78,72,70,-100,-100,-100,0,0,100,0.00,40.00,20,14,27,0.02
2013-1-9,78,74,70,-100,-100,-100,0,0,100,0.00,40.00,18,14,25,0.00
2013-1-10,80,73,69,-100,-100,-100,0,0,100,0.00,40.00,18,13,28,0.00
2013-1-11,81,73,67,-100,-100,-100,0,0,100,0.00,40.00,17,10,24,0.00
2013-1-12,79,70,62,-100,-100,-100,0,0,100,0.00,40.00,16,9,22,0.00
2013-1-13,80,72,67,-100,-100,-100,0,0,100,0.00,40.00,8,5,14,0.88
2013-1-14,79,72,68,-100,-100,-100,0,0,100,0.00,40.00,14,7,17,0.62
2013-1-15,75,68,58,-100,-100,-100,0,0,100,0.00,40.00,17,6,28,0.00
2013-1-16,77,68,61,-100,-100,-100,0,0,100,0.00,40.00,16,7,22,0.00
2013-1-17,75,68,61,-100,-100,-100,0,0,100,0.00,40.00,12,6,15,0.00
2013-1-18,78,66,59,-100,-100,-100,0,0,100,0.00,40.00,15,8,23,0.00
2013-1-19,76,65,54,-100,-100,-100,0,0,100,0.00,40.00,10,6,14,0.00
2013-1-20,78,67,58,-100,-100,-100,0,0,100,0.00,40.00,14,7,17,0.00
2013-1-21,78,69,59,-100,-100,-100,0,0,100,0.00,40.00,21,11,28,0.00
2013-1-22,78,72,68,-100,-100,-100,0,0,100,0.00,40.00,17,12,23,0.00
2013-1-23,77,72,67,-100,-100,-100,0,0,100,0.00,40.00,15,11,22,0.00
2013-1-24,80,71,62,-100,-100,-100,0,0,100,0.00,40.00,18,9,25,0.00
2013-1-25,77,71,65,-100,-100,-100,0,0,100,0.00,40.00,10,8,14,0.00
2013-1-26,77,72,67,-100,-100,-100,0,0,100,0.00,40.00,15,8,21,0.04
2013-1-27,74,71,66,-100,-100,-100,0,0,100,0.00,40.00,14,10,22,2.06
2013-1-28,77,73,65,-100,-100,-100,0,0,100,0.00,40.00,16,8,23,0.00
2013-1-29,77,69,62,-100,-100,-100,0,0,100,0.00,40.00,8,6,15,0.00
2013-1-30,77,68,61,-100,-100,-100,0,0,100,0.00,40.00,8,6,12,0.00
2013-1-31,80,72,61,-100,-100,-100,0,0,100,0.00,40.00,14,8,21,0.00
2013-2-1,78,73,68,-100,-100,-100,0,0,100,0.00,40.00,23,16,32,0.00
2013-2-2,78,73,68,-100,-100,-100,0,0,100,0.00,40.00,17,13,23,0.00
2013-2-3,78,70,61,-100,-100,-100,0,0,100,0.00,40.00,18,8,24,0.00
2013-2-4,78,72,68,-100,-100,-100,0,0,100,0.00,40.00,21,14,37,0.00
2013-2-5,75,70,67,-100,-100,-100,0,0,100,0.00,40.00,18,13,27,0.04
2013-2-6,79,72,67,-100,-100,-100,0,0,100,0.00,40.00,20,12,29,0.00
2013-2-7,79,71,64,-100,-100,-100,0,0,100,0.00,40.00,15,9,23,0.00
2013-2-8,78,73,66,-100,-100,-100,0,0,100,0.00,40.00,16,9,22,0.00
2013-2-9,77,70,61,-100,-100,-100,0,0,100,0.00,40.00,13,8,17,0.00
2013-2-10,79,73,67,-100,-100,-100,0,0,100,0.00,40.00,20,12,28,0.00
2013-2-11,77,72,70,-100,-100,-100,0,0,100,0.00,40.00,21,14,29,0.03
2013-2-12,78,71,66,-100,-100,-100,0,0,100,0.00,40.00,18,13,28,0.00
2013-2-13,76,71,67,-100,-100,-100,0,0,100,0.00,40.00,17,11,27,0.00
2013-2-14,77,71,67,-100,-100,-100,0,0,100,0.00,40.00,17,12,25,0.00
2013-2-15,78,72,67,-100,-100,-100,0,0,100,0.00,40.00,17,13,28,0.00
2013-2-16,78,72,69,-100,-100,-100,0,0,100,0.00,40.00,24,17,35,0.05
2013-2-17,78,72,69,-100,-100,-100,0,0,100,0.00,40.00,24,18,36,0.15
2013-2-18,77,71,68,-100,-100,-100,0,0,100,0.00,40.00,23,17,35,0.01
2013-2-19,77,72,67,-100,-100,-100,0,0,100,0.00,40.00,23,17,33,0.04
2013-2-20,77,71,66,-100,-100,-100,0,0,100,0.00,40.00,22,16,31,0.08
2013-2-21,73,70,68,-100,-100,-100,0,0,100,0.00,40.00,18,14,31,0.54
2013-2-22,78,72,69,-100,-100,-100,0,0,100,0.00,40.00,23,17,33,0.07
2013-2-23,78,72,69,-100,-100,-100,0,0,100,0.00,40.00,23,17,32,0.03
2013-2-24,79,72,69,-100,-100,-100,0,0,100,0.00,40.00,22,16,31,0.00
2013-2-25,79,72,68,-100,-100,-100,0,0,100,0.00,40.00,21,13,30,0.00
2013-2-26,79,72,68,-100,-100,-100,0,0,100,0.00,40.00,21,16,31,0.03
2013-2-27,79,72,69,-100,-100,-100,0,0,100,0.00,40.00,22,16,33,0.00
2013-2-28,79,73,67,-100,-100,-100,0,0,100,0.00,40.00,18,14,29,0.01
2013-3-1,78,73,69,-100,-100,-100,0,0,100,0.00,40.00,24,17,33,0.00
2013-3-2,79,72,68,-100,-100,-100,0,0,100,0.00,40.00,20,16,32,0.02
2013-3-3,77,72,67,-100,-100,-100,0,0,100,0.00,40.00,20,14,27,0.01
2013-3-4,78,72,68,-100,-100,-100,0,0,100,0.00,40.00,21,14,28,0.00
2013-3-5,79,71,67,-100,-100,-100,0,0,100,0.00,40.00,16,12,24,0.00
2013-3-6,78,73,67,-100,-100,-100,0,0,100,0.00,40.00,17,12,22,0.00
2013-3-7,77,69,62,-100,-100,-100,0,0,100,0.00,40.00,10,6,14,0.00
2013-3-8,79,70,63,-100,-100,-100,0,0,100,0.00,40.00,14,8,22,0.02
2013-3-9,77,72,67,-100,-100,-100,0,0,100,0.00,40.00,18,9,27,0.16
2013-3-10,79,73,63,-100,-100,-100,0,0,100,0.00,40.00,15,12,21,0.01
2013-3-11,74,68,61,-100,-100,-100,0,0,100,0.00,40.00,7,6,10,0.00
2013-3-12,78,72,62,-100,-100,-100,0,0,100,0.00,40.00,16,10,24,0.00
2013-3-13,77,68,60,-100,-100,-100,0,0,100,0.00,40.00,12,8,16,0.00
2013-3-14,75,69,62,-100,-100,-100,0,0,100,0.00,40.00,9,6,13,0.00
2013-3-15,76,70,63,-100,-100,-100,0,0,100,0.00,40.00,21,13,32,0.05
2013-3-16,76,70,63,-100,-100,-100,0,0,100,0.00,40.00,14,8,18,0.00
2013-3-17,75,71,60,-100,-100,-100,0,0,100,0.00,40.00,7,6,10,0.00
2013-3-18,74,73,71,-100,-100,-100,0,0,100,0.00,40.00,8,8,12,0.01
2013-3-19,75,49,73,-100,-100,-100,0,0,100,0.00,40.00,8,4,12,0.00
2013-3-20,78,39,78,-100,-100,-100,0,0,100,0.00,40.00,8,4,12,0.00
2013-3-21,78,78,78,-100,-100,-100,0,0,100,0.00,40.00,9,8,13,0.02
2013-3-22,81,77,73,-100,-100,-100,0,0,100,0.00,40.00,13,11,17,0.11
2013-3-23,80,74,67,-100,-100,-100,0,0,100,0.00,40.00,15,12,24,0.00
2013-3-24,77,75,74,-100,-100,-100,0,0,100,0.00,40.00,17,14,25,0.01
2013-3-25,78,77,75,-100,-100,-100,0,0,100,0.00,40.00,14,12,18,0.00
2013-3-26,79,77,75,-100,-100,-100,0,0,100,0.00,40.00,9,7,14,0.10
2013-3-27,77,76,76,-100,-100,-100,0,0,100,0.00,40.00,16,11,25,0.00
2013-3-28,80,79,76,-100,-100,-100,0,0,100,0.00,40.00,21,19,29,0.00
2013-3-29,77,76,75,-100,-100,-100,0,0,100,0.00,40.00,16,16,21,0.00
2013-6-7,84,75,75,-100,-100,-100,0,0,100,0.00,40.00,21,16,31,0.00
2013-6-8,85,78,73,-100,-100,-100,0,0,100,0.00,40.00,22,15,30,0.00
2013-6-9,85,78,74,-100,-100,-100,0,0,100,0.00,40.00,20,14,28,0.00
2013-6-10,86,79,74,-100,-100,-100,0,0,100,0.00,40.00,22,14,32,0.00
2013-6-11,85,78,75,-100,-100,-100,0,0,100,0.00,40.00,18,13,27,0.00
2013-6-12,86,78,72,-100,-100,-100,0,0,100,0.00,40.00,22,15,31,0.04
2013-6-13,85,78,74,-100,-100,-100,0,0,100,0.00,40.00,21,16,31,0.10
2013-6-14,85,78,73,-100,-100,-100,0,0,100,0.00,40.00,24,16,35,0.00
2013-6-15,85,78,72,-100,-100,-100,0,0,100,0.00,40.00,21,15,30,0.00
2013-6-16,85,77,72,-100,-100,-100,0,0,100,0.00,40.00,17,13,25,0.00
2013-6-17,85,77,73,-100,-100,-100,0,0,100,0.00,40.00,18,15,24,0.07
2013-6-18,85,78,74,-100,-100,-100,0,0,100,0.00,40.00,21,15,30,0.00
2013-6-19,84,78,72,-100,-100,-100,0,0,100,0.00,40.00,17,12,24,0.00